Stations météo

Publicité
Perpignan, France (7747): Température de l'air & dewpoint: 21.06.2019 13:00:00 - 27.06.2019 13:00:00 (CEST)Perpignan, France (7747): Température de l'air 5cm: 21.06.2019 13:00:00 - 27.06.2019 13:00:00 (CEST)Perpignan, France (7747): Température de l'air -20cm & Température de l'air -100cm: 21.06.2019 13:00:00 - 27.06.2019 13:00:00 (CEST)Perpignan, France (7747): Vitesse du vent & gusts: 21.06.2019 13:00:00 - 27.06.2019 13:00:00 (CEST)Perpignan, France (7747): Direction du vent: 21.06.2019 13:00:00 - 27.06.2019 13:00:00 (CEST)Perpignan, France (7747): reduced air pressure: 21.06.2019 13:00:00 - 27.06.2019 13:00:00 (CEST)Perpignan, France (7747): visibility: 21.06.2019 13:00:00 - 27.06.2019 13:00:00 (CEST)Perpignan, France (7747): Quantités de précipitations: 21.06.2019 13:00:00 - 27.06.2019 13:00:00 (CEST)
Date & Time tt [°C] td [°C] tt 5cm [°C] tt -20cm [°C] tt -100cm [°C] ff [km/h] ff [knt] fx [km/h] fx [knt] dd ppp [hPa] vv [km] rr [mm]
27.06.2019 13:00:00 - - - - - - - - - - - - -
27.06.2019 12:00:00 30,6 19,6 40,1 26,8 22,8 9 5 19 10 ENE 1020,6 60 0,0
27.06.2019 11:00:00 29,4 18,8 36,4 26,7 22,8 10 6 18 10 E 1020,6 51 0,0
27.06.2019 10:00:00 27,5 18,8 29,3 26,8 22,7 5 3 13 7 NE 1020,9 39 0,0
27.06.2019 09:00:00 24,7 17,9 22,5 27,0 22,7 0 0 3 2 N 1021,1 36 0,0
27.06.2019 08:00:00 20,9 18,1 17,9 27,2 22,8 0 0 6 4 N 1021,0 31 0,0
27.06.2019 07:00:00 18,4 16,6 16,3 27,5 22,7 5 3 11 6 WSW 1020,8 20 0,0
27.06.2019 06:00:00 18,4 16,7 16,4 27,7 22,7 6 3 12 6 W 1020,8 21 0,0
27.06.2019 05:00:00 18,9 16,7 16,4 28,0 22,7 9 5 11 6 W 1020,7 25 0,0
27.06.2019 04:00:00 18,9 16,9 16,3 28,3 22,7 4 2 6 3 NW 1020,9 27 0,0
27.06.2019 03:00:00 20,1 17,5 17,1 28,6 22,7 2 1 11 6 SSW 1020,8 27 0,0
27.06.2019 02:00:00 20,3 18,1 17,9 28,8 22,7 6 3 9 5 W 1020,9 26 0,0
27.06.2019 01:00:00 22,4 20,1 19,0 29,1 22,7 3 1 9 5 N 1020,9 19 0,0
27.06.2019 00:00:00 22,8 19,4 20,4 29,3 22,6 5 3 14 7 N 1021,0 25 0,0
26.06.2019 23:00:00 23,5 20,0 21,9 29,5 22,7 10 5 17 9 NE 1020,7 25 0,0
26.06.2019 22:00:00 23,8 20,1 22,7 29,6 22,6 12 7 17 9 NE 1020,2 17 0,0
26.06.2019 21:00:00 25,8 19,4 25,6 29,7 22,6 13 7 20 11 NNE 1019,8 36 0,0
26.06.2019 20:00:00 27,2 19,0 28,8 29,5 22,6 15 8 24 13 NE 1019,3 32 0,0
26.06.2019 19:00:00 29,0 19,3 33,2 29,3 22,6 17 9 28 15 ENE 1019,1 37 0,0
26.06.2019 18:00:00 31,2 16,0 35,8 28,9 22,6 16 8 30 16 E 1019,4 33 0,0
26.06.2019 17:00:00 31,1 18,1 38,2 28,4 22,6 14 8 27 15 ENE 1020,0 51 0,0
26.06.2019 16:00:00 31,3 17,2 38,8 27,9 22,5 18 10 31 17 E 1020,4 47 0,0
26.06.2019 15:00:00 30,8 16,8 39,5 27,3 22,5 21 11 32 18 E 1020,7 46 0,0
26.06.2019 14:00:00 30,9 16,5 39,6 26,8 22,5 21 11 29 16 E 1021,1 20 0,0
26.06.2019 13:00:00 29,7 16,8 38,4 26,5 22,5 20 11 29 16 ESE 1021,5 60 0,0
26.06.2019 12:00:00 28,6 17,8 36,4 26,3 22,5 18 10 26 14 ESE 1021,7 60 0,0
26.06.2019 11:00:00 27,5 18,5 31,9 26,2 22,5 16 9 27 14 E 1022,0 38 0,0
26.06.2019 10:00:00 26,0 18,9 28,9 26,3 22,5 19 10 25 14 E 1021,8 36 0,0
26.06.2019 09:00:00 24,6 20,3 23,9 26,4 22,5 10 5 19 10 ENE 1021,6 38 0,0
26.06.2019 08:00:00 22,4 20,1 18,8 26,7 22,5 11 6 17 9 NE 1021,4 24 0,0
26.06.2019 07:00:00 19,7 18,7 15,1 26,9 22,5 5 3 12 7 N 1021,3 12 0,0
26.06.2019 06:00:00 18,3 15,7 15,1 27,2 22,5 4 2 9 5 NW 1020,8 25 0,0
26.06.2019 05:00:00 19,5 15,6 15,9 27,5 22,4 4 2 11 6 W 1020,2 39 0,0
26.06.2019 04:00:00 21,4 16,1 17,5 27,7 22,4 9 5 19 10 N 1020,0 40 0,0
26.06.2019 03:00:00 22,3 16,1 17,6 28,0 22,4 6 4 23 13 ESE 1020,0 46 0,0
26.06.2019 02:00:00 22,7 16,9 21,5 28,2 22,4 18 10 26 14 ESE 1020,1 43 0,0
26.06.2019 01:00:00 22,5 17,4 21,3 28,5 22,4 14 8 25 14 SE 1020,2 38 0,0
26.06.2019 00:00:00 22,8 18,1 20,9 28,7 22,4 17 9 25 13 ESE 1020,3 37 0,0
25.06.2019 23:00:00 22,0 18,4 20,2 28,9 22,4 10 5 14 8 ENE 1019,9 32 0,0
25.06.2019 22:00:00 23,0 19,0 22,1 29,0 22,4 8 4 19 11 E 1019,4 31 0,0
25.06.2019 21:00:00 24,3 18,7 24,3 29,0 22,4 10 6 32 17 E 1018,8 36 0,0
25.06.2019 20:00:00 26,1 18,5 27,0 28,9 22,3 22 12 37 20 ESE 1018,0 26 0,0
25.06.2019 19:00:00 30,7 15,5 33,1 28,7 22,3 24 13 41 22 ESE 1017,1 43 0,0
25.06.2019 18:00:00 29,8 18,3 34,1 28,4 22,3 21 11 34 19 ESE 1017,3 51 0,0
25.06.2019 17:00:00 28,6 19,0 34,6 27,9 22,3 21 11 33 18 E 1017,8 32 0,0
25.06.2019 16:00:00 28,0 20,3 37,0 27,3 22,3 23 12 35 19 E 1018,0 32 0,0
25.06.2019 15:00:00 29,6 19,0 40,1 26,8 22,3 20 11 31 17 E 1018,0 31 0,0
25.06.2019 14:00:00 30,1 18,2 38,7 26,2 22,3 19 10 31 17 E 1018,2 20 0,0
25.06.2019 13:00:00 29,6 17,1 37,1 25,8 22,3 21 12 33 18 E 1018,5 33 0,0
25.06.2019 12:00:00 30,6 13,8 38,9 25,6 22,3 18 10 32 17 SE 1018,7 33 0,0
25.06.2019 11:00:00 28,8 17,7 34,5 25,5 22,3 9 5 19 10 S 1018,6 24 0,0
25.06.2019 10:00:00 25,2 19,6 27,4 25,5 22,3 5 3 10 5 SSW 1019,0 20 0,0
25.06.2019 09:00:00 22,3 19,8 23,7 25,6 22,2 5 3 11 6 E 1018,8 20 0,0
25.06.2019 08:00:00 20,9 19,7 19,4 25,8 22,2 4 2 11 6 NE 1018,3 13 0,0
25.06.2019 07:00:00 19,6 17,9 17,0 26,0 22,3 6 3 9 5 N 1018,0 17 0,0
25.06.2019 06:00:00 19,9 17,1 17,2 26,3 22,2 2 1 10 6 WNW 1017,4 27 0,0
25.06.2019 05:00:00 20,2 17,0 17,5 26,5 22,2 5 3 13 7 NNE 1016,8 31 0,0
25.06.2019 04:00:00 21,5 16,7 18,9 26,7 22,2 10 6 21 12 ESE 1016,6 34 0,0
25.06.2019 03:00:00 21,6 16,3 18,5 26,9 22,2 6 4 28 15 ENE 1016,5 39 0,0
25.06.2019 02:00:00 20,3 17,1 18,3 27,2 22,2 8 5 16 9 E 1016,6 34 0,0
25.06.2019 01:00:00 20,1 18,6 18,4 27,4 22,2 8 5 14 7 NE 1016,8 19 0,0
25.06.2019 00:00:00 20,1 18,8 18,5 27,6 22,2 7 4 15 8 NE 1016,5 16 0,0
24.06.2019 23:00:00 20,6 18,9 19,1 27,9 22,1 7 4 17 9 NNE 1016,5 21 0,0
24.06.2019 22:00:00 21,4 19,0 20,7 28,0 22,2 12 7 26 14 ESE 1015,9 30 0,0
24.06.2019 21:00:00 22,5 18,5 22,5 28,1 22,1 16 9 36 19 ESE 1015,6 39 0,0
24.06.2019 20:00:00 23,6 17,3 24,2 28,2 22,1 23 12 40 21 SE 1015,2 37 0,0
24.06.2019 19:00:00 23,9 16,7 24,6 28,0 22,1 26 14 52 28 ESE 1015,0 31 0,0
24.06.2019 18:00:00 26,3 14,7 27,9 27,7 22,1 31 17 51 28 SE 1014,6 25 0,0
24.06.2019 17:00:00 27,8 13,7 30,7 27,2 22,1 34 18 53 29 ESE 1014,7 19 0,0
24.06.2019 16:00:00 29,7 13,9 35,9 26,6 22,1 33 18 54 29 SE 1014,8 21 0,0
24.06.2019 15:00:00 29,5 16,3 35,9 26,1 22,1 31 17 48 26 ESE 1015,2 23 0,0
24.06.2019 14:00:00 27,8 15,8 35,4 25,6 22,1 29 16 49 26 ESE 1016,2 26 0,0
24.06.2019 13:00:00 27,6 15,6 34,8 25,3 22,1 28 15 50 27 ESE 1016,3 30 0,0
24.06.2019 12:00:00 26,7 15,7 32,5 25,1 22,1 29 16 47 26 ESE 1016,2 35 0,0
24.06.2019 11:00:00 24,6 18,3 26,8 25,1 22,0 23 12 33 18 ESE 1016,3 26 0,0
24.06.2019 10:00:00 23,0 19,0 24,1 25,1 22,0 15 8 21 11 ESE 1016,3 20 0,0
24.06.2019 09:00:00 20,6 18,4 21,9 25,3 22,0 10 5 18 10 ENE 1016,0 15 0,0
24.06.2019 08:00:00 19,8 18,6 19,8 25,5 22,0 9 5 13 7 NE 1015,9 12 0,0
24.06.2019 07:00:00 18,9 17,9 19,0 25,6 22,0 4 2 6 4 N 1015,6 9 0,0
24.06.2019 06:00:00 18,6 18,1 16,2 25,9 22,0 5 3 9 5 W 1015,4 7 0,0
24.06.2019 05:00:00 18,1 17,3 16,3 26,1 22,0 5 3 9 5 WSW 1015,6 8 0,0
24.06.2019 04:00:00 18,9 18,1 17,0 26,4 22,0 4 2 9 5 NNE 1015,8 8 0,0
24.06.2019 03:00:00 19,2 18,2 17,3 26,6 21,9 6 3 8 5 E 1016,0 12 0,0
24.06.2019 02:00:00 19,5 18,5 17,3 26,8 22,0 4 2 9 5 ENE 1016,0 13 0,0
24.06.2019 01:00:00 19,8 18,6 18,2 27,1 21,9 6 3 8 4 NNE 1016,1 16 0,0
24.06.2019 00:00:00 20,2 18,5 18,7 27,3 22,0 4 2 8 4 NE 1016,0 20 0,0
23.06.2019 23:00:00 20,8 18,6 19,4 27,4 21,9 6 3 8 4 NE 1016,1 26 0,0
23.06.2019 22:00:00 21,5 18,1 20,4 27,6 21,9 6 3 10 5 ENE 1015,3 34 0,0
23.06.2019 21:00:00 22,7 18,0 22,8 27,6 22,0 8 5 14 8 NE 1015,0 38 0,0
23.06.2019 20:00:00 24,5 17,7 26,6 27,5 22,0 11 6 17 9 NE 1014,6 37 0,0
23.06.2019 19:00:00 25,6 17,3 29,6 27,2 22,0 13 7 20 11 ENE 1014,1 35 0,0
23.06.2019 18:00:00 26,6 17,1 32,6 26,8 21,9 15 8 23 12 E 1013,9 58 0,0
23.06.2019 17:00:00 27,7 17,2 35,0 26,3 21,9 15 8 24 13 E 1014,1 51 0,0
23.06.2019 16:00:00 27,9 16,8 39,1 25,7 21,9 16 8 27 15 NE 1014,0 53 0,0
23.06.2019 15:00:00 27,7 14,0 41,3 25,1 21,9 15 8 26 14 ENE 1014,0 58 0,0
23.06.2019 14:00:00 26,9 15,6 40,1 24,6 21,9 16 8 25 14 ENE 1014,2 60 0,0
23.06.2019 13:00:00 25,6 17,3 32,3 24,2 21,9 16 9 26 14 NE 1014,5 60 0,0
23.06.2019 12:00:00 25,5 17,7 32,7 23,9 21,9 18 10 27 15 NE 1014,4 50 0,0
23.06.2019 11:00:00 24,9 17,9 32,0 23,8 21,9 16 8 27 14 ENE 1014,4 35 0,0
23.06.2019 10:00:00 24,1 16,4 26,6 23,8 21,9 14 8 21 11 NE 1014,3 45 0,0
23.06.2019 09:00:00 22,3 14,2 20,8 24,0 21,9 8 4 12 7 N 1014,4 60 0,0
23.06.2019 08:00:00 19,4 15,3 17,1 24,2 21,8 0 0 6 3 N 1014,1 60 0,0
23.06.2019 07:00:00 17,2 14,5 14,0 24,4 22,0 5 3 7 4 SW 1014,1 58 0,0
23.06.2019 06:00:00 16,2 13,5 13,9 24,7 21,9 2 1 8 4 N 1014,2 54 0,0
23.06.2019 05:00:00 16,6 13,9 14,3 24,9 22,0 5 3 8 4 WSW 1014,2 60 0,0
23.06.2019 04:00:00 17,4 13,7 14,7 25,1 21,9 3 2 6 3 SW 1014,1 60 0,0
23.06.2019 03:00:00 17,9 14,2 15,9 25,3 21,9 6 3 7 4 W 1014,3 60 0,0
23.06.2019 02:00:00 18,3 14,8 15,9 25,6 22,0 5 3 8 4 WSW 1014,4 55 0,0
23.06.2019 01:00:00 18,9 15,0 16,7 25,8 21,9 6 3 9 5 W 1014,6 55 0,0
23.06.2019 00:00:00 20,2 15,6 17,1 26,0 21,9 5 3 11 6 SSW 1014,4 59 0,0
22.06.2019 23:00:00 21,0 15,3 18,2 26,1 21,9 6 3 8 5 NW 1014,7 18 0,0
22.06.2019 22:00:00 22,9 15,7 19,5 26,2 21,9 4 2 9 5 ENE 1014,4 58 0,0
22.06.2019 21:00:00 24,6 13,8 22,3 26,2 21,9 5 3 13 7 ESE 1014,1 60 0,0
22.06.2019 20:00:00 25,8 13,3 26,4 26,1 21,9 10 5 17 9 ESE 1014,2 58 0,0
22.06.2019 19:00:00 25,7 12,9 26,9 25,8 21,9 14 7 24 13 SE 1013,8 48 0,0
22.06.2019 18:00:00 27,2 13,5 31,8 25,4 22,0 16 9 25 13 SE 1013,8 60 0,0
22.06.2019 17:00:00 28,2 12,5 34,5 24,9 22,0 15 8 29 16 ESE 1014,1 60 0,0
22.06.2019 16:00:00 29,4 9,0 34,4 24,3 22,0 13 7 24 13 N 1014,4 60 0,0
22.06.2019 15:00:00 28,2 9,9 41,2 23,7 22,0 13 7 28 15 NW 1015,2 59 0,0
22.06.2019 14:00:00 27,1 10,3 40,8 23,1 22,0 14 7 29 16 WNW 1015,8 43 0,0
22.06.2019 13:00:00 25,7 11,8 38,3 22,6 22,0 16 8 29 16 NW 1016,5 40 0,0
22.06.2019 12:00:00 24,3 12,9 33,9 22,4 21,9 21 12 34 18 NW 1016,7 41 0,0
22.06.2019 11:00:00 23,3 13,2 29,2 22,2 22,0 20 11 35 19 NW 1016,4 42 0,0
22.06.2019 10:00:00 21,9 13,0 23,7 22,2 22,0 20 11 38 20 NW 1016,5 42 0,0
22.06.2019 09:00:00 20,4 12,9 19,8 22,3 21,9 20 11 39 21 NW 1016,9 46 0,0
22.06.2019 08:00:00 19,1 12,8 16,6 22,4 22,0 11 6 27 15 WNW 1017,0 46 0,0
22.06.2019 07:00:00 17,8 12,9 15,2 22,6 22,0 10 5 24 13 WNW 1016,8 47 0,0
22.06.2019 06:00:00 17,4 12,7 15,6 22,7 22,0 13 7 32 17 WNW 1016,7 60 0,0
22.06.2019 05:00:00 17,7 12,8 15,4 23,0 22,1 16 9 30 16 NW 1016,8 60 0,0
22.06.2019 04:00:00 17,8 12,9 15,9 23,2 22,1 13 7 32 17 WNW 1017,2 60 0,0
22.06.2019 03:00:00 17,8 12,7 16,3 23,4 22,0 16 8 51 27 NW 1017,4 60 0,0
22.06.2019 02:00:00 18,6 12,8 17,1 23,6 22,0 28 15 54 29 NW 1017,3 60 0,0
22.06.2019 01:00:00 18,3 12,7 17,0 23,8 22,0 30 16 53 28 NW 1017,6 60 0,0
22.06.2019 00:00:00 18,6 13,0 17,5 24,0 22,0 24 13 43 23 NW 1017,3 60 0,0
21.06.2019 23:00:00 18,6 13,0 17,7 24,2 22,0 29 15 50 27 NW 1017,3 60 0,0
21.06.2019 22:00:00 18,9 12,9 17,6 24,4 21,9 29 16 54 29 NW 1016,9 60 0,0
21.06.2019 21:00:00 18,8 12,8 18,1 24,5 22,0 32 17 56 30 NW 1016,2 60 0,0
21.06.2019 20:00:00 21,2 13,6 20,5 24,6 22,0 31 17 55 30 NW 1015,7 38 0,0
21.06.2019 19:00:00 20,2 14,1 20,4 24,6 22,0 31 17 49 27 NW 1015,7 47 0,0
21.06.2019 18:00:00 21,0 14,9 21,4 24,5 22,0 28 15 48 26 WNW 1015,5 33 0,0
21.06.2019 17:00:00 23,4 18,1 23,2 24,4 21,9 21 11 38 20 NW 1015,3 58 0,0
21.06.2019 16:00:00 21,4 19,0 20,5 24,4 21,9 3 2 15 8 WSW 1015,4 16 1,4
21.06.2019 15:00:00 22,4 17,7 22,3 24,4 21,9 8 5 13 7 NW 1015,5 45 0,0
21.06.2019 14:00:00 22,2 18,8 20,8 24,4 22,0 3 2 12 7 S 1015,5 48 1,6
21.06.2019 13:00:00 22,8 17,9 20,8 24,2 22,0 10 5 18 10 W 1015,9 12 0,4

tt = Température de l'air
td = dewpoint
tt 5cm = Température de l'air 5cm
tt -20cm = Température de l'air -20cm
tt -100cm = Température de l'air -100cm
ff = Vitesse du vent
fx = gusts
dd = Direction du vent
ppp = reduced air pressure
vv = visibility
rr = Quantités de précipitations

stations d'obs. à proximité